User: anonymous   Login
Location: Newark
(25.4800°N, 85.7200°E)
Time: 19:58:28
(UTC+00:00)
Language:

Transit 4A - Orbit

View from above orbital plane
View from above orbital plane
View from above satellite
View from above satellite

Ground track
Ground track

The orbit data is extracted from the following two-line orbital elements,

1   116U 61015A   19236.17662863 -.00000053  00000-0  18431-4 0  9991
2   116  66.8080 217.3689 0080550 221.7927 137.6984 13.91756875950792
Epoch (UTC): 24 August 2019 04:14:20
Eccentricity: 0.0080550
inclination: 66.8080°
perigee height: 863 km
apogee height: 981 km
right ascension of ascending node: 217.3689°
argument of perigee: 221.7927°
revolutions per day: 13.91756875
mean anomaly at epoch: 137.6984°
orbit number at epoch: 95079

The dashed part of the orbit path shows where the satellite is in the earth's shadow,  

DLR